Вернуться в каталог

EKRAN 6

АктивенСвязьGEO
NORAD 12120·PAYLOAD·🇷🇺 Russia

Запущен Dec 26, 1980 с Baikonur Cosmodrome

Loading…

TLE

СвежийSource: Space-Track

Эпоха: Sep 14, 2026, 14:05 UTC

1 12120U 80104A   26257.58749440  .00000008  00000-0  00000-0 0  9990
2 12120   6.0357 289.8917 0004403  69.1300 268.2359  1.00315246128304

Отслеживайте EKRAN 6 в реальном времени с AllMySat

Download on the App Store